{"data":{"norad_id":59165,"intl_designator":"2024-044P","name":"STARLINK-31325","alt_names":[],"object_type":"PAYLOAD","status":"ACTIVE","operator":null,"country":"US","launch_date":"2024-03-04","launch_site_code":"AFETR","launch_vehicle":null,"mission":null,"orbit_class":"UNKNOWN","rcs_meters":null,"size_class":null,"mass_kg":null,"dimensions":null,"purposes":["comms"],"wikipedia_slug":null,"has_3d_model":false,"image_url":null,"decayed_at":null,"tle_current":{"epoch":"2026-09-19T22:20:49.757280Z","epoch_age_seconds":208008,"freshness":"STALE","line1":"1 59165U 24044P   26262.93113145  .00000225  00000+0  17721-4 0  9995","line2":"2 59165  43.0013  89.9357 0001413 267.1781  92.8909 15.27576209143279","mean_motion":15.27576209,"eccentricity":0.0001413,"inclination_deg":43.0013,"raan_deg":89.9357,"arg_perigee_deg":267.1781,"mean_anomaly_deg":92.8909,"bstar":1.7721e-5,"rev_number":14327,"period_min":94.266982656313,"perigee_km":482.09096048158,"apogee_km":484.02993488029,"semimajor_km":6861.1974476809,"source":"CELESTRAK","updated_at":"2026-09-21T09:00:34.058830Z"}}}